GW2349 Weather Reports


Display with metric or nautical units.
time (UTC)temp
F
wind
direction
speed
MPH
gust
MPH
rain 1hr
in
rain 24hr
in
rain mn
in
humidity
%
barometer
mb
20260502224043 34 226 1.0 3.0 0.00 0.28 0.00 85 1006.1
20260502223543 34 231 1.0 4.0 0.00 0.28 0.00 85 1006.1
20260502223101 34 249 1.0 4.0 0.00 0.28 0.00 85 1006.1
20260502222543 34 242 1.0 4.0 0.00 0.28 0.00 85 1006.1
20260502222043 34 274 0.0 2.0 0.00 0.28 0.00 85 1006.1
20260502221548 34 274 0.0 0.0 0.00 0.28 0.00 85 1006.2
20260502221042 34 0 0.0 0.0 0.00 0.28 0.00 84 1006.1
20260502220542 34 0 0.0 0.0 0.00 0.28 0.00 84 1006.1
20260502220059 34 0 0.0 0.0 0.00 0.28 0.00 84 1006.1
20260502215543 34 0 0.0 0.0 0.00 0.31 0.28 84 1006.1
20260502215042 34 0 0.0 0.0 0.00 0.31 0.28 84 1006.0
20260502214609 34 0 0.0 1.0 0.00 0.31 0.28 84 1006.2
20260502214043 34 0 0.0 2.0 0.00 0.31 0.28 84 1006.2
20260502213548 34 0 0.0 2.0 0.00 0.31 0.28 84 1006.2
20260502213109 34 274 0.0 2.0 0.00 0.31 0.28 84 1006.3
20260502212544 34 0 0.0 2.0 0.00 0.31 0.28 84 1006.3
20260502212042 34 0 0.0 0.0 0.00 0.31 0.28 84 1006.4
20260502211554 34 0 0.0 0.0 0.00 0.31 0.28 84 1006.3
20260502211044 34 0 0.0 1.0 0.00 0.31 0.28 84 1006.2
20260502210542 34 0 0.0 1.0 0.00 0.31 0.28 84 1006.4
20260502210048 34 0 0.0 1.0 0.00 0.31 0.28 84 1006.4
20260502205542 34 0 0.0 1.0 0.00 0.31 0.28 83 1006.4
20260502205042 34 0 0.0 1.0 0.00 0.31 0.28 83 1006.4
20260502204547 34 0 0.0 1.0 0.00 0.31 0.28 83 1006.4
20260502204044 34 0 0.0 1.0 0.00 0.31 0.28 83 1006.4
20260502203543 34 0 0.0 3.0 0.00 0.31 0.28 83 1006.4
20260502203119 34 0 0.0 3.0 0.00 0.31 0.28 83 1006.2
20260502202546 34 273 1.0 3.0 0.00 0.31 0.28 83 1006.3
20260502202045 34 243 0.0 3.0 0.00 0.31 0.28 82 1006.2
20260502201550 34 0 0.0 4.0 0.00 0.31 0.28 82 1006.2
20260502201050 34 0 0.0 5.0 0.00 0.31 0.28 82 1006.2
20260502200544 34 265 1.0 5.0 0.00 0.31 0.28 82 1006.2
20260502200057 34 306 2.0 5.0 0.00 0.31 0.28 82 1006.2
20260502195543 34 332 1.0 4.0 0.00 0.32 0.28 82 1006.2
20260502195042 35 299 1.0 8.0 0.00 0.32 0.28 82 1006.2
20260502194553 35 309 0.0 8.0 0.00 0.32 0.28 82 1006.2
20260502194042 35 349 2.0 8.0 0.00 0.32 0.28 82 1006.2
20260502193542 35 0 1.0 6.0 0.00 0.32 0.28 82 1006.3
20260502193050 35 346 2.0 6.0 0.00 0.32 0.28 82 1006.2
20260502192543 35 310 2.0 6.0 0.00 0.32 0.28 82 1006.1
20260502192043 35 338 2.0 8.0 0.00 0.32 0.28 82 1006.2
20260502191555 35 0 2.0 10.0 0.00 0.32 0.28 82 1006.1
20260502191042 35 338 1.0 10.0 0.00 0.32 0.28 81 1006.1
20260502190546 35 342 2.0 10.0 0.00 0.32 0.28 81 1006.1
20260502190049 35 338 0.0 2.0 0.00 0.32 0.28 81 1006.1
20260502185541 35 0 0.0 5.0 0.00 0.33 0.28 81 1006.0
20260502185046 35 0 1.0 5.0 0.00 0.33 0.28 81 1006.0
20260502184555 35 5 1.0 5.0 0.00 0.33 0.28 81 1005.9
20260502184043 35 11 1.0 6.0 0.00 0.33 0.28 81 1006.0
20260502183543 35 0 2.0 9.0 0.00 0.33 0.28 80 1005.9
20260502183102 35 360 1.0 9.0 0.00 0.33 0.28 80 1005.9
20260502182545 36 259 3.0 7.0 0.00 0.33 0.28 80 1005.8
20260502182044 36 321 3.0 7.0 0.00 0.33 0.28 80 1005.8
20260502181552 36 272 2.0 7.0 0.00 0.33 0.28 79 1005.8
20260502181042 36 317 2.0 9.0 0.00 0.33 0.28 79 1005.7
20260502180543 36 254 2.0 10.0 0.00 0.33 0.28 78 1005.8
20260502164046 39 352 2.0 9.0 0.00 0.42 0.28 70 1005.3
20260502163543 39 327 3.0 7.0 0.00 0.42 0.28 71 1005.3
20260502163109 39 254 2.0 7.0 0.00 0.42 0.28 71 1005.2
20260502162543 39 304 3.0 10.0 0.00 0.42 0.28 71 1005.3
20260502162043 39 316 1.0 10.0 0.00 0.42 0.28 71 1005.4
20260502161613 40 322 6.0 10.0 0.00 0.42 0.28 70 1005.3
20260502161042 40 245 2.0 10.0 0.00 0.42 0.28 70 1005.3
20260502160542 40 300 5.0 10.0 0.00 0.42 0.28 70 1005.3
20260502152043 40 294 2.0 9.0 0.00 0.46 0.28 70 1005.2
20260502151557 40 5 2.0 9.0 0.00 0.46 0.28 68 1005.1
20260502151042 40 265 3.0 10.0 0.00 0.46 0.28 68 1005.1
20260502150542 40 281 2.0 10.0 0.00 0.46 0.28 68 1005.2
20260502130543 41 284 3.0 7.0 0.00 0.48 0.28 77 1004.6
20260502123541 41 266 3.0 7.0 0.00 0.50 0.28 81 1004.4
20260502123112 40 166 1.0 6.0 0.01 0.50 0.28 81 1004.2
20260502122542 40 223 3.0 8.0 0.01 0.50 0.28 82 1004.2
20260502122045 40 213 2.0 9.0 0.01 0.50 0.28 83 1004.2
20260502121554 40 218 4.0 9.0 0.01 0.50 0.28 83 1004.0
20260502121043 40 183 3.0 8.0 0.01 0.50 0.28 84 1004.2
20260502120543 40 181 2.0 6.0 0.01 0.50 0.28 83 1004.1
20260502115542 39 0 2.0 10.0 0.01 0.51 0.28 84 1004.0
20260502115043 39 247 2.0 12.0 0.01 0.51 0.28 84 1004.2
20260502114550 39 256 4.0 17.0 0.02 0.51 0.28 84 1004.1
20260502114045 39 246 7.0 17.0 0.01 0.50 0.27 83 1004.0
20260502113543 39 286 3.0 11.0 0.01 0.50 0.27 84 1004.0
20260502113053 39 248 3.0 10.0 0.00 0.49 0.26 83 1004.0
20260502112543 39 296 3.0 11.0 0.00 0.49 0.26 83 1004.1
20260502112042 39 242 4.0 13.0 0.01 0.49 0.26 84 1003.9
20260502111551 39 298 6.0 13.0 0.01 0.49 0.26 84 1003.8
20260502111044 39 238 6.0 11.0 0.01 0.49 0.26 83 1003.7
20260502110542 39 254 5.0 10.0 0.01 0.49 0.26 84 1003.7
20260502110051 39 298 3.0 14.0 0.01 0.49 0.26 84 1003.6
20260502105543 39 256 5.0 14.0 0.01 0.50 0.26 84 1003.6
20260502105042 39 326 4.0 16.0 0.01 0.50 0.26 86 1003.6
20260502104550 39 253 2.0 17.0 0.01 0.49 0.25 87 1003.5
20260502104042 38 323 6.0 17.0 0.01 0.49 0.25 87 1003.4
20260502103542 38 327 1.0 10.0 0.01 0.49 0.25 86 1003.4
20260502103048 38 257 4.0 11.0 0.01 0.49 0.25 85 1003.4
20260502102543 38 239 4.0 13.0 0.03 0.49 0.25 85 1003.4
20260502102041 38 197 2.0 14.0 0.03 0.48 0.25 85 1003.3
20260502101548 38 318 5.0 14.0 0.04 0.48 0.25 85 1003.2
20260502101042 38 246 6.0 16.0 0.05 0.48 0.25 84 1003.1
20260502100542 39 217 8.0 16.0 0.06 0.48 0.25 85 1003.1
20260502091043 38 240 10.0 20.0 0.04 0.44 0.19 83 1002.3
20260502090542 38 259 11.0 20.0 0.03 0.43 0.18 84 1002.3
20260502080104 42 348 9.0 19.0 0.00 0.39 0.14 67 1001.1
20260502071041 39 260 9.0 19.0 0.01 0.39 0.14 81 1001.0
20260502070542 39 259 7.0 19.0 0.02 0.39 0.14 83 1000.9
20260502070105 38 256 10.0 19.0 0.03 0.39 0.14 83 1000.8
20260502065543 38 219 9.0 19.0 0.03 0.39 0.14 84 1000.9
20260502065042 38 203 7.0 19.0 0.03 0.39 0.14 85 1000.9
20260502064554 38 240 10.0 21.0 0.03 0.39 0.14 84 1001.0
20260502064043 38 259 11.0 21.0 0.03 0.39 0.14 84 1000.8
20260502063543 38 285 10.0 18.0 0.03 0.39 0.14 84 1000.9
20260502063059 38 255 9.0 18.0 0.02 0.38 0.14 84 1000.9
20260502062543 38 318 7.0 15.0 0.02 0.38 0.14 84 1000.8
20260502062042 38 248 8.0 24.0 0.02 0.38 0.14 83 1000.4
20260502061555 38 228 12.0 24.0 0.02 0.38 0.14 82 1000.6
20260502061041 39 261 10.0 30.0 0.01 0.37 0.13 80 1000.6
20260502060541 40 240 11.0 30.0 0.00 0.37 0.12 78 1000.4
20260502060055 41 240 8.0 20.0 0.00 0.36 0.11 76 1000.4
20260502055542 41 238 10.0 20.0 0.00 0.36 0.11 75 1000.0
20260502055043 41 268 7.0 18.0 0.00 0.36 0.11 77 999.8
20260502054551 41 234 8.0 18.0 0.00 0.36 0.11 77 999.9
20260502054042 41 250 5.0 18.0 0.00 0.36 0.11 77 999.8
20260502053542 41 254 8.0 18.0 0.00 0.36 0.11 77 999.9
20260502053058 41 248 6.0 20.0 0.00 0.36 0.11 77 1000.1
20260502052542 41 171 6.0 20.0 0.00 0.36 0.11 77 1000.0
20260502052045 41 211 8.0 21.0 0.00 0.36 0.11 76 999.8
20260502051603 40 238 8.0 21.0 0.00 0.36 0.11 77 999.9
20260502051042 40 270 8.0 17.0 0.00 0.36 0.11 76 1000.0
20260502050542 40 214 7.0 16.0 0.00 0.36 0.11 77 999.9
20260502050052 40 257 8.0 16.0 0.00 0.36 0.11 78 999.8
20260502045542 40 258 9.0 21.0 0.00 0.36 0.11 77 999.9
20260502045041 40 275 11.0 21.0 0.00 0.36 0.11 77 1000.0
20260502044559 40 257 10.0 21.0 0.00 0.36 0.11 76 999.9
20260502044041 40 250 10.0 24.0 0.00 0.36 0.11 77 999.9
20260502043553 40 244 10.0 24.0 0.00 0.36 0.11 78 999.9
20260502043048 40 267 8.0 20.0 0.00 0.36 0.11 77 1000.0
20260502042542 40 271 10.0 20.0 0.01 0.36 0.11 77 999.9
20260502042045 40 300 11.0 20.0 0.01 0.36 0.11 77 999.8
20260502041553 40 202 10.0 19.0 0.01 0.36 0.11 78 999.9
20260502041045 40 242 12.0 21.0 0.02 0.36 0.11 79 999.8
20260502040542 41 248 9.0 21.0 0.03 0.36 0.11 80 999.8
20260502035541 41 249 9.0 18.0 0.03 0.36 0.11 82 999.5
20260502035042 41 248 11.0 21.0 0.03 0.35 0.11 82 999.6
20260502034556 41 259 10.0 22.0 0.03 0.35 0.11 82 999.5
20260502034043 41 257 9.0 23.0 0.03 0.35 0.11 81 999.6
20260502033541 41 269 11.0 23.0 0.03 0.35 0.11 82 999.7
20260502033050 42 250 10.0 19.0 0.03 0.35 0.11 85 999.7
20260502032541 42 239 6.0 22.0 0.02 0.34 0.10 85 999.6
20260502032042 43 294 9.0 22.0 0.02 0.34 0.10 85 999.5
20260502031556 43 242 11.0 18.0 0.03 0.34 0.10 87 999.3
20260502031046 43 251 4.0 16.0 0.02 0.33 0.09 87 999.0
20260502030541 43 153 4.0 19.0 0.02 0.33 0.08 86 999.1
20260502030050 43 174 9.0 19.0 0.02 0.33 0.08 86 998.9
20260502025541 43 188 9.0 18.0 0.01 0.32 0.07 86 999.0
20260502025043 43 141 8.0 26.0 0.02 0.32 0.07 86 999.2
20260502024544 43 208 10.0 26.0 0.02 0.32 0.07 86 999.3
20260502024041 43 173 7.0 18.0 0.02 0.32 0.07 86 999.4
20260502023544 43 250 10.0 17.0 0.02 0.32 0.07 86 999.6
20260502023059 43 234 7.0 15.0 0.03 0.32 0.07 87 999.5
20260502022542 43 193 5.0 14.0 0.03 0.32 0.07 86 999.7
20260502022042 43 259 7.0 15.0 0.03 0.32 0.07 86 999.9
20260502021553 43 161 5.0 15.0 0.03 0.31 0.07 87 1000.0
20260502021042 43 214 4.0 12.0 0.03 0.31 0.07 87 1000.2
20260502020542 43 175 6.0 12.0 0.03 0.30 0.06 87 1000.1
20260502020047 43 196 5.0 12.0 0.03 0.30 0.06 87 1000.2
20260502015542 43 134 4.0 12.0 0.03 0.30 0.06 87 1000.3
20260502015042 43 248 3.0 14.0 0.03 0.29 0.05 86 1000.4
20260502014549 43 252 4.0 15.0 0.03 0.29 0.05 86 1000.6
20260502014041 43 113 7.0 17.0 0.03 0.29 0.05 85 1000.6
20260502013541 44 240 8.0 18.0 0.03 0.29 0.05 85 1000.7
20260502013113 44 229 9.0 20.0 0.03 0.29 0.04 85 1000.8
20260502012542 44 188 10.0 20.0 0.03 0.29 0.04 84 1001.0
20260502012042 44 283 10.0 20.0 0.03 0.29 0.04 84 1000.9
20260502011550 44 277 9.0 22.0 0.02 0.28 0.03 85 1000.9
20260502011042 44 188 10.0 22.0 0.02 0.28 0.03 85 1001.0
20260502010541 44 221 5.0 24.0 0.01 0.27 0.03 85 1001.1
20260502010052 45 202 7.0 24.0 0.00 0.26 0.02 85 1001.1
20260502005541 45 277 9.0 18.0 0.00 0.26 0.02 84 1001.1
20260502005043 45 172 8.0 18.0 0.01 0.26 0.02 84 1000.9
20260502004556 45 248 6.0 18.0 0.01 0.26 0.02 85 1001.0
20260502004044 45 207 7.0 18.0 0.01 0.25 0.01 86 1001.0
20260502003542 45 303 7.0 18.0 0.01 0.25 0.01 86 1000.9
20260502003050 45 217 7.0 18.0 0.01 0.25 0.01 86 1001.0
20260502002545 45 220 9.0 20.0 0.01 0.25 0.01 86 1001.1
20260502002042 45 165 8.0 20.0 0.01 0.25 0.01 86 1001.1
20260502001553 45 204 7.0 17.0 0.01 0.25 0.01 87 1001.2
20260502001043 45 291 6.0 14.0 0.01 0.25 0.01 87 1001.4
20260502000541 45 325 2.0 14.0 0.01 0.25 0.01 87 1001.4
20260502000057 45 286 4.0 14.0 0.01 0.25 0.01 87 1001.6
20260501235541 45 180 5.0 11.0 0.01 0.25 0.01 87 1001.6
20260501235045 45 186 4.0 15.0 0.00 0.25 0.00 87 1001.6
20260501234547 45 173 4.0 15.0 0.00 0.25 0.00 86 1001.5
20260501234041 45 202 3.0 12.0 0.00 0.24 0.00 86 1001.5
20260501233541 45 237 3.0 16.0 0.00 0.24 0.00 86 1001.4
20260501233053 45 263 2.0 16.0 0.00 0.24 0.00 86 1001.7
20260501232547 45 205 5.0 16.0 0.00 0.24 0.00 85 1001.7
20260501232042 45 225 3.0 12.0 0.00 0.24 0.00 85 1001.8
20260501231554 45 151 6.0 12.0 0.00 0.24 0.00 85 1001.8
20260501231042 45 229 3.0 13.0 0.00 0.24 0.00 85 1001.9
20260501230543 45 246 4.0 15.0 0.00 0.24 0.00 85 1001.9
20260501230054 45 185 6.0 15.0 0.00 0.24 0.00 85 1002.1
20260501225541 45 278 5.0 15.0 0.00 0.24 0.00 86 1002.1
20260501225041 45 274 3.0 13.0 0.00 0.24 0.00 86 1002.2
20260501224550 45 276 5.0 13.0 0.00 0.24 0.00 86 1002.2